Regional Weather Roundup
Issued by NWS

Home | Current Version | Previous Version | Graphics & Text | Print | Product List | Glossary On
Versions: 1 2 3 4 5 6 7 8 9 10 11 12 13 14 15 16 17 18 19 20 21 22 23 24 25 26 27 28 29 30 31 32 33 34 35 36 37 38 39 40 41 42 43 44 45 46 47 48 49 50
000
ASUS45 KCYS 030310
RWRWY

WYOMING REGIONAL WEATHER ROUNDUP
NATIONAL WEATHER SERVICE CHEYENNE WY
900 PM MDT TUE JUN 02 2015

NOTE:  "FAIR" INDICATES FEW OR NO CLOUDS BELOW 12,000 FEET
WITH NO SIGNIFICANT WEATHER AND/OR OBSTRUCTIONS TO VISIBILITY.

WYZ001-030400-
YELLOWSTONE NATIONAL PARK

CITY           SKY/WX    TMP DP  RH WIND       PRES   REMARKS
LK YELLOWSTONE   N/A     50  36  58 W6        30.12R
W YELLOWSTONE  NOT AVBL

$$
WYZ002>013-054>058-071-098>099-030400-
NORTHERN WYOMING

CITY           SKY/WX    TMP DP  RH WIND       PRES   REMARKS
JACKSON        FAIR      55  37  50 SW10      30.05
CODY           MOCLDY    61  48  63 N6        29.95R
GREYBULL       FAIR      65  49  56 NE3       29.87R
WORLAND        FAIR      60  54  80 SW5       29.88R
SHERIDAN       FAIR      56  49  77 S3        29.92S
BUFFALO        FAIR      53  46  77 CALM      29.98S
GILLETTE       FAIR      53  50  89 NE9       29.95F
HULETT         LGT RAIN  59  55  88 NW8G18    30.08R
NEWCASTLE      RAIN      54  48  82 NW36G54   29.99R

$$
WYZ014>020-022>026-101>103-030400-
CENTRAL WYOMING

CITY           SKY/WX    TMP DP  RH WIND       PRES   REMARKS
BIG PINEY      FAIR      56  37  49 NW7       30.08R
PINEDALE       FAIR      55  41  58 N3        30.08S
DUBOIS         FAIR      54  34  47 W6        30.05R
LANDER         FAIR      62  46  55 SW5       29.94R
RIVERTON       FAIR      66  42  41 E5        29.94R
CASPER         FAIR      63  47  55 NE9G17    29.94R
DOUGLAS        FAIR      63  52  67 MISG      29.89R

$$
WYZ021-027>030-104>119-030400-
SOUTHERN WYOMING

CITY           SKY/WX    TMP DP  RH WIND       PRES   REMARKS
EVANSTON       FAIR      59  37  44 W12       30.08R
KEMMERER       FAIR      57  28  33 W20       30.08F
FORT BRIDGER   CLEAR     61  32  33 W16       30.10R
ROCK SPRINGS   FAIR      63  32  31 W9        30.05R
DIXON          FAIR      60  39  46 NE3       30.04R
RAWLINS        FAIR      64  34  32 W7        30.02S
SARATOGA       FAIR      61  30  31 SW10      30.06R
LARAMIE        FAIR      57  29  34 W6        30.05R
CHEYENNE       FAIR      62  50  64 N7        29.98R
TORRINGTON     FAIR      67  47  48 CALM      29.85R
PINE BLUFFS    FAIR      64  54  68 N13       29.91R

$$


USA.gov is the U.S. government's official web portal to all federal, state and local government web resources and services.